User: anonymous
Location: Unspecified
(0.0000°N, 0.0000°E)
Time: 01:17:46
(UTC+00:00)
Language:

NOAA 17 - Orbit

View from above orbital plane
View from above orbital plane
View from above satellite
View from above satellite

Ground track
Ground track

The orbit data is extracted from the following two-line orbital elements,

1 27453U 02032A   14210.47021296  .00000112  00000-0  65489-4 0  6680
2 27453 098.3161 207.9596 0012532 055.1455 305.0902 14.24759194628705
Epoch (UTC): 29 July 2014 11:17:06
Eccentricity: 0.0012532
inclination: 98.3161°
perigee height: 800 km
apogee height: 818 km
right ascension of ascending node: 207.9596°
argument of perigee: 55.1455°
revolutions per day: 14.24759194
mean anomaly at epoch: 305.0902°
orbit number at epoch: 62870

The dashed part of the orbit path shows where the satellite is in the earth's shadow,  

DLR